[[{"header":{"parameterUnit":"m.s-1","parameterCategory":1,"la1":30.2991,"la2":30.254,"lo1":-89.0895,"lo2":-89.0444,"dy":0.0017,"dx":0.0017,"nx":28,"ny":28,"refTime":"2025-04-21T09:00:00:Z","depth":0,"parameterNumber":2,"parameterNumberName":"U-component_of_WINDS"},"data":[0,0,0,0,0,0,0,0,0,0,0,0,0,0,0,0,0,0,0,0,0,0,0,0,0,0,0,0,0,0,0,0,0,0,0,0,0,0,0,0,0,0,0,0,0,0,0,0,0,0,0,0,0,0,0,0,0,0,-1.0197,-1.0197,0,-1.0204,-1.0204,-1.0204,-1.0195,-1.0195,-1.0195,-1.0195,-1.0202,-1.0202,-1.0203,0,0,0,0,0,0,0,0,0,0,0,0,0,-1.0179,-1.0179,-1.0197,-1.0197,-1.0197,-1.0204,-1.0204,-1.0204,-1.0196,-1.0195,-1.0195,-1.0194,-1.0202,-1.0202,-1.0203,0,0,0,0,0,0,0,0,0,0,0,0,0,-1.0186,-1.0179,-1.0197,-1.0194,-1.0194,-1.0204,-1.0204,-1.0204,-1.0196,-1.0195,-1.0195,-1.0194,-1.0202,-1.0202,-1.0203,-1.0217,0,0,-1.0205,-1.0206,0,0,0,0,0,0,0,0,-1.0186,-1.0187,-1.0194,-1.0194,-1.0194,-1.0198,-1.02,-1.0208,-1.0196,-1.0195,-1.0195,-1.0194,-1.0201,-1.0202,-1.0204,-1.0217,-1.0217,-1.0205,-1.0206,-1.0206,-1.0206,0,0,0,0,0,0,0,-1.0185,-1.0187,-1.02,-1.0195,-1.0194,-1.0193,-1.0193,-1.0202,-1.0201,-1.0195,-1.0194,-1.0195,-1.0201,-1.0203,-1.0204,-1.0218,-1.0205,-1.0206,-1.0206,-1.0207,-1.0242,-1.0243,0,0,0,0,0,0,-1.0185,-1.0186,-1.02,-1.02,-1.0189,-1.0193,-1.0194,-1.0197,-1.02,-1.02,-1.0196,-1.0195,-1.0202,-1.0203,-1.0205,-1.0221,-1.0206,-1.0207,-1.0207,-1.0242,-1.0242,-1.0243,0,0,0,0,0,0,-1.0185,-1.0186,-1.0199,-1.0193,-1.0194,-1.0194,-1.0198,-1.0198,-1.02,-1.0201,-1.0201,-1.0198,-1.0202,-1.0203,-1.0214,-1.0221,-1.0207,-1.0208,-1.0241,-1.0242,-1.0243,-1.0253,0,0,0,0,0,0,-1.0184,-1.0186,-1.0191,-1.0193,-1.0195,-1.0208,-1.0199,-1.0198,-1.0201,-1.02,-1.0203,-1.0203,-1.0202,-1.0213,-1.0214,-1.0222,-1.0208,-1.0241,-1.0242,-1.0242,-1.0252,-1.0254,-1.0256,0,0,0,0,0,-1.0183,-1.0194,-1.0191,-1.0193,-1.0201,-1.0209,-1.021,-1.0207,-1.0202,-1.0207,-1.0208,-1.0203,-1.022,-1.0214,-1.0216,-1.0223,-1.024,-1.0241,-1.0242,-1.0251,-1.0254,-1.0256,0,0,0,0,0,0,-1.0193,-1.0194,-1.0191,-1.0203,-1.0206,-1.0207,-1.0213,-1.021,-1.0215,-1.0214,-1.0211,-1.0212,-1.0223,-1.0224,-1.0217,-1.0237,-1.0229,-1.0231,-1.0235,-1.0238,-1.0239,-1.0239,-1.0209,0,0,0,0,0,-1.0196,-1.0202,-1.0203,-1.0213,-1.0215,-1.0214,-1.0217,-1.0215,-1.0218,-1.022,-1.0221,-1.0224,-1.023,-1.0234,-1.024,-1.0253,-1.0253,-1.0259,-1.0261,-1.0262,-1.0263,-1.027,-1.0273,-1.0247,-1.0247,-1.0247,0,0,-1.0203,-1.0205,-1.0209,-1.0215,-1.0217,-1.0223,-1.0215,-1.0222,-1.0227,-1.0221,-1.023,-1.0231,-1.0235,-1.0247,-1.0252,-1.0248,-1.0271,-1.0264,-1.0265,-1.0265,-1.0272,-1.0274,-1.0276,-1.0247,-1.0247,-1.0247,0,0,-1.0219,-1.0221,-1.023,-1.0232,-1.0235,-1.0234,-1.0237,-1.0239,-1.0239,-1.0249,-1.0244,-1.025,-1.0261,-1.0263,-1.0266,-1.0284,-1.028,-1.0286,-1.0295,-1.0302,-1.0304,-1.0306,-1.0312,-1.0314,-1.0287,-1.0287,-1.0287,0,-1.0228,-1.0237,-1.0234,-1.0242,-1.0245,-1.0239,-1.0248,-1.0251,-1.0256,-1.0258,-1.0254,-1.0267,-1.0269,-1.0281,-1.0285,-1.0288,-1.029,-1.0285,-1.0304,-1.0306,-1.0308,-1.0313,-1.0316,-1.0288,-1.0288,-1.0288,-1.0288,0,-1.0247,-1.0254,-1.026,-1.0265,-1.0269,-1.0277,-1.0276,-1.028,-1.0278,-1.0278,-1.0288,-1.029,-1.0296,-1.0299,-1.0297,-1.0311,-1.0309,-1.0304,-1.0297,-1.0311,-1.0316,-1.0318,-1.0289,-1.0288,-1.0288,-1.0288,0,0,-1.0269,-1.0272,-1.0274,-1.0276,-1.028,-1.0285,-1.0293,-1.0299,-1.0302,-1.0306,-1.0313,-1.0322,-1.0318,-1.0321,-1.032,-1.0326,-1.0339,-1.0321,-1.0321,-1.0324,-1.0355,-1.0358,-1.036,-1.0337,-1.0338,-1.0338,-1.0354,0,-1.0285,-1.0298,-1.0296,-1.0309,-1.0315,-1.031,-1.0317,-1.032,-1.0321,-1.0326,-1.0327,-1.0333,-1.0328,-1.033,-1.0335,-1.0336,-1.0345,-1.0335,-1.0343,-1.0344,-1.0342,-1.0363,-1.0366,-1.0382,-1.0356,-1.0357,-1.0357,0,-1.0305,-1.0309,-1.0322,-1.0325,-1.0327,-1.0334,-1.0339,-1.0344,-1.0347,-1.0347,-1.0351,-1.0349,-1.0357,-1.035,-1.0361,-1.0354,-1.0358,-1.0359,-1.0359,-1.0359,-1.0351,-1.0364,-1.0387,-1.0389,-1.036,-1.036,-1.036,0,-1.0319,-1.0328,-1.0337,-1.0339,-1.0342,-1.0347,-1.0349,-1.0352,-1.0355,-1.036,-1.0362,-1.0368,-1.0371,-1.0376,-1.0375,-1.0369,-1.0387,-1.0379,-1.0387,-1.0387,-1.039,-1.039,-1.0414,-1.0393,-1.0393,-1.0393,-1.0393,0,-1.0337,-1.0345,-1.0344,-1.0349,-1.0359,-1.0357,-1.0366,-1.0367,-1.037,-1.0376,-1.0373,-1.0379,-1.0377,-1.0383,-1.0383,-1.0393,-1.0394,-1.0394,-1.0394,-1.0394,-1.0394,-1.0396,-1.0395,-1.0394,-1.0393,-1.0393,-1.0393,0,-1.0354,-1.0353,-1.0363,-1.0365,-1.0366,-1.0373,-1.0375,-1.038,-1.0381,-1.0388,-1.039,-1.0391,-1.0398,-1.0397,-1.0405,-1.0405,-1.0417,-1.0415,-1.0415,-1.0415,-1.0423,-1.0422,-1.0448,-1.0451,-1.0429,-1.0429,-1.0429,0,-1.0365,-1.0371,-1.0374,-1.0378,-1.038,-1.0386,-1.0389,-1.0388,-1.0392,-1.0396,-1.0401,-1.0408,-1.0413,-1.0424,-1.0425,-1.0431,-1.043,-1.0438,-1.0431,-1.0431,-1.0429,-1.0429,-1.043,-1.044,-1.044,-1.044,-1.044,0,-1.0385,-1.0384,-1.0389,-1.0394,-1.0399,-1.0403,-1.0406,-1.041,-1.0409,-1.0413,-1.042,-1.0424,-1.0432,-1.0438,-1.0444,-1.0446,-1.0443,-1.0443,-1.0445,-1.0445,-1.0445,-1.0445,-1.0419,-1.0442,-1.0442,-1.0442,-1.0442,-1.0442,-1.0399,-1.0405,-1.0408,-1.0413,-1.0416,-1.0419,-1.0425,-1.0426,-1.0431,-1.0437,-1.0436,-1.0444,-1.0447,-1.0455,-1.0457,-1.0463,-1.046,-1.0463,-1.0464,-1.0465,-1.0465,-1.0444,-1.0464,-1.0464,-1.0464,-1.0464,-1.0464,0,-1.0419,-1.0421,-1.0426,-1.0431,-1.0436,-1.0432,-1.0436,-1.044,-1.0447,-1.045,-1.0455,-1.0463,-1.0469,-1.0471,-1.0477,-1.0482,-1.0481,-1.0484,-1.0483,-1.0484,-1.0468,-1.0465,-1.0484,-1.0484,-1.0484,-1.0484,-1.0484,-1.0484,-1.043,-1.0439,-1.0438,-1.0449,-1.045,-1.0457,-1.046,-1.0463,-1.0466,-1.0474,-1.0479,-1.0481,-1.0483,-1.049,-1.0496,-1.0496,-1.0498,-1.0502,-1.0501,-1.0487,-1.0485,-1.0483,-1.048,-1.0502,-1.0502,-1.0517,-1.0517,-1.0517]},{"header":{"parameterUnit":"m.s-1","parameterCategory":1,"la1":30.2991,"la2":30.254,"lo1":-89.0895,"lo2":-89.0444,"dy":0.0017,"dx":0.0017,"nx":28,"ny":28,"refTime":"2025-04-21T09:00:00:Z","depth":0,"parameterNumber":3,"parameterNumberName":"V-component_of_WINDS"},"data":[0,0,0,0,0,0,0,0,0,0,0,0,0,0,0,0,0,0,0,0,0,0,0,0,0,0,0,0,0,0,0,0,0,0,0,0,0,0,0,0,0,0,0,0,0,0,0,0,0,0,0,0,0,0,0,0,0,0,4.0551,4.055,0,4.0516,4.0515,4.0515,4.0429,4.0428,4.0426,4.0424,4.0391,4.0392,4.0393,0,0,0,0,0,0,0,0,0,0,0,0,0,4.0547,4.0547,4.0551,4.055,4.055,4.0516,4.0515,4.0515,4.043,4.0428,4.0425,4.0423,4.0391,4.0392,4.0393,0,0,0,0,0,0,0,0,0,0,0,0,0,4.0534,4.0548,4.0551,4.0503,4.0499,4.0516,4.0515,4.0515,4.043,4.0427,4.0425,4.0422,4.039,4.0392,4.0393,4.0454,0,0,4.0396,4.0397,0,0,0,0,0,0,0,0,4.0535,4.0534,4.0511,4.0507,4.0501,4.0474,4.0502,4.0494,4.0431,4.0456,4.0424,4.0421,4.0421,4.0419,4.0419,4.0453,4.0451,4.0396,4.0397,4.0398,4.0398,0,0,0,0,0,0,0,4.0536,4.0535,4.0537,4.051,4.0505,4.0485,4.048,4.05,4.0454,4.0454,4.0448,4.0444,4.0418,4.0418,4.0418,4.0451,4.0396,4.0397,4.0398,4.0399,4.0533,4.0536,0,0,0,0,0,0,4.0543,4.0537,4.0538,4.0536,4.0512,4.0487,4.0481,4.0486,4.0454,4.0446,4.0447,4.0441,4.0417,4.0416,4.0416,4.0485,4.0398,4.0399,4.0399,4.053,4.0534,4.0537,0,0,0,0,0,0,4.0544,4.0544,4.0539,4.0535,4.0532,4.049,4.0495,4.0486,4.0486,4.0448,4.044,4.0455,4.0415,4.0414,4.0445,4.0483,4.0399,4.04,4.0527,4.0532,4.0535,4.0625,0,0,0,0,0,0,4.0544,4.0545,4.0567,4.0536,4.0533,4.0568,4.0498,4.0488,4.0488,4.048,4.0454,4.0447,4.0413,4.0444,4.0446,4.0483,4.0401,4.0523,4.0529,4.0534,4.0619,4.0632,4.0644,0,0,0,0,0,4.0544,4.0594,4.0568,4.0569,4.0559,4.0571,4.0569,4.0528,4.0492,4.0514,4.049,4.0448,4.0479,4.0448,4.045,4.0488,4.0521,4.0527,4.0534,4.0613,4.063,4.0643,0,0,0,0,0,0,4.0631,4.0589,4.056,4.0601,4.059,4.0556,4.0583,4.0547,4.0546,4.0539,4.0489,4.0484,4.0521,4.0508,4.0474,4.0546,4.0493,4.05,4.0553,4.0568,4.058,4.0582,4.0402,0,0,0,0,0,4.0656,4.0667,4.063,4.067,4.0666,4.0626,4.0629,4.0599,4.0585,4.058,4.0558,4.0548,4.0555,4.0561,4.0566,4.0617,4.061,4.0644,4.0657,4.0667,4.0674,4.07,4.0714,4.0558,4.0558,4.0558,0,0,4.0705,4.0684,4.0694,4.0687,4.0675,4.0689,4.0622,4.064,4.065,4.0583,4.061,4.0595,4.058,4.0621,4.0638,4.0611,4.0715,4.0675,4.0684,4.0684,4.0708,4.0723,4.0736,4.0563,4.0562,4.0561,0,0,4.0803,4.0788,4.0819,4.0809,4.0791,4.0764,4.0772,4.0744,4.073,4.0757,4.0707,4.0719,4.0733,4.0724,4.0721,4.0818,4.0779,4.0821,4.0885,4.0912,4.0924,4.0934,4.0968,4.0981,4.0828,4.0828,4.0828,0,4.0867,4.0885,4.0841,4.0861,4.086,4.08,4.0832,4.0824,4.0809,4.081,4.078,4.0796,4.0782,4.082,4.0844,4.0844,4.0852,4.0823,4.0926,4.0936,4.0945,4.0977,4.099,4.0833,4.0832,4.0832,4.0831,0,4.0965,4.0979,4.1007,4.0993,4.0995,4.1022,4.0982,4.099,4.096,4.0937,4.0965,4.0946,4.0946,4.0953,4.0924,4.0988,4.0971,4.0934,4.088,4.0966,4.0995,4.1007,4.084,4.0838,4.0837,4.0836,0,0,4.1116,4.1077,4.1088,4.1081,4.1058,4.1068,4.1093,4.1092,4.1099,4.1092,4.1111,4.1125,4.1091,4.1088,4.1058,4.1081,4.1158,4.1041,4.104,4.1063,4.1227,4.1255,4.127,4.1133,4.1135,4.1137,4.1228,0,4.1207,4.1245,4.1206,4.1253,4.1265,4.1209,4.123,4.1219,4.1199,4.1207,4.1185,4.1195,4.1149,4.1147,4.1167,4.1145,4.119,4.1138,4.1151,4.1152,4.1155,4.1285,4.1314,4.1401,4.124,4.1241,4.1243,0,4.1318,4.1315,4.1362,4.1336,4.134,4.136,4.1356,4.1365,4.1351,4.1335,4.1333,4.1296,4.1319,4.1268,4.1299,4.1264,4.1268,4.1258,4.126,4.1259,4.1202,4.1287,4.1427,4.144,4.126,4.1259,4.1258,0,4.1422,4.143,4.1459,4.1455,4.1426,4.1441,4.143,4.1414,4.1416,4.1413,4.1414,4.1415,4.1416,4.1418,4.1383,4.1349,4.1419,4.1365,4.1406,4.1407,4.1423,4.1422,4.1565,4.1427,4.1427,4.1427,4.1426,0,4.1527,4.1558,4.1505,4.1524,4.1557,4.1513,4.1548,4.1531,4.1518,4.1532,4.1485,4.15,4.1453,4.1463,4.1437,4.1467,4.1468,4.1455,4.1448,4.1459,4.1461,4.146,4.1453,4.143,4.1429,4.1429,4.1428,0,4.1648,4.1614,4.1642,4.1613,4.1606,4.1632,4.1607,4.1623,4.16,4.1619,4.1621,4.1585,4.1595,4.1561,4.1565,4.1547,4.1592,4.1575,4.1596,4.159,4.1634,4.163,4.1781,4.1799,4.165,4.1652,4.1653,0,4.1717,4.174,4.1712,4.1718,4.1709,4.172,4.1721,4.168,4.1684,4.1671,4.1689,4.1695,4.1697,4.1716,4.169,4.1694,4.1676,4.1729,4.1676,4.1687,4.1676,4.1675,4.1677,4.1739,4.1741,4.1743,4.1744,0,4.1843,4.1825,4.1829,4.1828,4.1831,4.1829,4.1823,4.1831,4.1786,4.1793,4.1802,4.1804,4.1809,4.1815,4.1814,4.1803,4.1767,4.1761,4.1771,4.1782,4.1793,4.1787,4.1625,4.1757,4.1756,4.1755,4.1754,4.1754,4.1939,4.1957,4.194,4.1947,4.1938,4.1934,4.1947,4.1926,4.1933,4.1932,4.1908,4.1922,4.1909,4.1903,4.1896,4.1907,4.1883,4.1897,4.1901,4.1905,4.1912,4.1792,4.1907,4.1907,4.1906,4.1906,4.1906,0,4.2062,4.2049,4.2055,4.2048,4.2054,4.2019,4.2011,4.2018,4.203,4.2021,4.2024,4.2036,4.2042,4.2018,4.2021,4.2035,4.2018,4.2037,4.2035,4.2034,4.1934,4.1924,4.2051,4.2051,4.2051,4.205,4.205,4.205,4.2126,4.2154,4.2135,4.2158,4.2145,4.2158,4.2156,4.2152,4.2145,4.2159,4.2164,4.2148,4.2133,4.2135,4.214,4.2133,4.2136,4.2161,4.2148,4.2055,4.204,4.2027,4.2018,4.2162,4.2162,4.2246,4.2247,4.2248]}]]